Tracking 19149 objects as of 20-Apr-2018
HD Live streaming from Space Station
objects crossing your sky now

SATCOM C3

Track SATCOM C3 now!
SATCOM C3 is classified as:


NORAD ID: 22117
Int'l Code: 1992-060B
Perigee: 36,614.3 km
Apogee: 36,852.7 km
Inclination: 10.6 °
Period: 1,484.4 minutes
Semi major axis: 43104 km
RCS: 6.9709 m2 (large)
Launch date: September 10, 1992
Source: United States (US)
Launch site: FRENCH GUIANA (FRGUI)
aabbcc
Your satellite tracking list
Your tracking list is empty




NASA's NSSDC Master Catalog

Two Line Element Set (TLE):
1 22117U 92060B   18107.92757830 -.00000069  00000-0  00000+0 0  9993
2 22117  10.5750  39.5788 0027657 305.9690 244.6733  0.97010519 92824
Source of the keplerian elements: AFSPC